[[{"header":{"parameterUnit":"m.s-1","parameterCategory":1,"la1":30.2991,"la2":30.254,"lo1":-89.0895,"lo2":-89.0444,"dy":0.0017,"dx":0.0017,"nx":28,"ny":28,"refTime":"2023-09-13T09:00:00:Z","depth":0,"parameterNumber":2,"parameterNumberName":"U-component_of_WINDS"},"data":[0,0,0,0,0,0,0,0,0,0,0,0,0,0,0,0,0,0,0,0,0,0,0,0,0,0,0,0,0,0,0,0,0,0,0,0,0,0,0,0,0,0,0,0,0,0,0,0,0,0,0,0,0,0,0,0,0,0,-1.7159,-1.7158,0,-1.7152,-1.7152,-1.7152,-1.7074,-1.7072,-1.707,-1.7068,-1.7063,-1.7065,-1.7067,0,0,0,0,0,0,0,0,0,0,0,0,0,-1.7105,-1.7107,-1.7159,-1.7158,-1.7158,-1.7152,-1.7152,-1.7152,-1.7074,-1.7072,-1.7069,-1.7067,-1.7063,-1.7065,-1.7067,0,0,0,0,0,0,0,0,0,0,0,0,0,-1.7117,-1.7107,-1.7159,-1.7119,-1.7115,-1.7152,-1.7152,-1.7152,-1.7075,-1.7072,-1.7069,-1.7066,-1.7062,-1.7065,-1.7067,-1.7143,0,0,-1.7075,-1.7076,0,0,0,0,0,0,0,0,-1.7116,-1.7119,-1.7125,-1.7121,-1.7117,-1.7111,-1.7132,-1.7149,-1.7075,-1.709,-1.7068,-1.7064,-1.7082,-1.7082,-1.7088,-1.7143,-1.7143,-1.7075,-1.7077,-1.7078,-1.7079,0,0,0,0,0,0,0,-1.7116,-1.7119,-1.7156,-1.7125,-1.712,-1.7102,-1.71,-1.7135,-1.7103,-1.7088,-1.7083,-1.7083,-1.7079,-1.7086,-1.7087,-1.7143,-1.7075,-1.7078,-1.7079,-1.708,-1.726,-1.7263,0,0,0,0,0,0,-1.712,-1.7119,-1.7156,-1.7156,-1.7109,-1.7105,-1.7103,-1.7116,-1.7102,-1.7097,-1.7086,-1.7079,-1.7083,-1.7084,-1.7087,-1.7174,-1.7078,-1.7081,-1.7082,-1.7257,-1.7261,-1.7264,0,0,0,0,0,0,-1.7119,-1.7124,-1.7157,-1.7136,-1.7138,-1.7109,-1.7124,-1.7117,-1.7123,-1.71,-1.7094,-1.7098,-1.708,-1.7083,-1.713,-1.7173,-1.7082,-1.7084,-1.7253,-1.7258,-1.7263,-1.7349,0,0,0,0,0,0,-1.7118,-1.7124,-1.7152,-1.7137,-1.714,-1.7199,-1.7127,-1.7119,-1.7128,-1.712,-1.711,-1.7105,-1.7078,-1.7126,-1.7132,-1.7175,-1.7086,-1.7249,-1.7255,-1.7261,-1.7342,-1.7356,-1.7369,0,0,0,0,0,-1.7116,-1.7177,-1.7154,-1.7159,-1.7174,-1.7201,-1.7203,-1.717,-1.7132,-1.716,-1.7145,-1.7105,-1.7168,-1.7132,-1.7138,-1.7182,-1.7246,-1.7254,-1.7261,-1.7336,-1.7354,-1.7368,0,0,0,0,0,0,-1.7198,-1.7174,-1.7148,-1.7205,-1.7206,-1.7188,-1.7221,-1.7189,-1.7201,-1.7193,-1.7153,-1.7151,-1.7204,-1.7198,-1.7158,-1.7255,-1.72,-1.7209,-1.7256,-1.7272,-1.7285,-1.7284,-1.7088,0,0,0,0,0,-1.7222,-1.7246,-1.7225,-1.7277,-1.7279,-1.7251,-1.7262,-1.7236,-1.7236,-1.7235,-1.7224,-1.7225,-1.7245,-1.7259,-1.7276,-1.7343,-1.7339,-1.7376,-1.7389,-1.74,-1.7407,-1.7442,-1.7458,-1.7288,-1.7288,-1.7288,0,0,-1.7273,-1.7263,-1.728,-1.7293,-1.7291,-1.7317,-1.7251,-1.7281,-1.73,-1.724,-1.7282,-1.7275,-1.7274,-1.7331,-1.7355,-1.7327,-1.7454,-1.7409,-1.7418,-1.7419,-1.7451,-1.7467,-1.7482,-1.7293,-1.7292,-1.7291,0,0,-1.7378,-1.7374,-1.7416,-1.7416,-1.7413,-1.7394,-1.7405,-1.7393,-1.7385,-1.7427,-1.7382,-1.7406,-1.7441,-1.7442,-1.7447,-1.7556,-1.752,-1.7563,-1.763,-1.7665,-1.7678,-1.769,-1.7727,-1.7742,-1.7571,-1.7571,-1.7572,0,-1.7441,-1.7478,-1.7443,-1.7476,-1.7483,-1.7431,-1.7474,-1.7476,-1.7479,-1.7486,-1.7455,-1.7498,-1.7494,-1.755,-1.7577,-1.7584,-1.7594,-1.7562,-1.7679,-1.769,-1.7701,-1.7736,-1.775,-1.7576,-1.7576,-1.7575,-1.7575,0,-1.7555,-1.7582,-1.7617,-1.7621,-1.7633,-1.7671,-1.7643,-1.766,-1.7635,-1.762,-1.7664,-1.7658,-1.7673,-1.7685,-1.7661,-1.7739,-1.7721,-1.7686,-1.763,-1.7722,-1.7755,-1.7768,-1.7584,-1.7582,-1.758,-1.7579,0,0,-1.7708,-1.7694,-1.7707,-1.7708,-1.7703,-1.7723,-1.776,-1.7774,-1.7789,-1.7794,-1.7824,-1.7856,-1.7824,-1.783,-1.7806,-1.7837,-1.7923,-1.7797,-1.7797,-1.7819,-1.8007,-1.8032,-1.8048,-1.7901,-1.7903,-1.7905,-1.8007,0,-1.7807,-1.7868,-1.7839,-1.7903,-1.7927,-1.788,-1.7912,-1.7913,-1.7902,-1.7921,-1.7909,-1.7931,-1.7887,-1.789,-1.7919,-1.7906,-1.796,-1.7899,-1.7927,-1.7929,-1.7926,-1.8065,-1.8091,-1.8187,-1.8019,-1.8021,-1.8023,0,-1.7931,-1.7941,-1.8007,-1.7998,-1.8007,-1.8037,-1.8048,-1.8067,-1.8068,-1.8058,-1.8066,-1.8036,-1.8073,-1.802,-1.8071,-1.803,-1.8041,-1.8037,-1.804,-1.8039,-1.7979,-1.8066,-1.8217,-1.8231,-1.8043,-1.8041,-1.804,0,-1.8033,-1.8063,-1.8107,-1.811,-1.8101,-1.8123,-1.812,-1.8118,-1.8129,-1.814,-1.8147,-1.8163,-1.8171,-1.8184,-1.816,-1.8124,-1.8214,-1.8159,-1.8205,-1.8206,-1.8223,-1.8222,-1.8376,-1.8235,-1.8235,-1.8235,-1.8235,0,-1.8145,-1.8187,-1.8152,-1.8179,-1.8226,-1.8194,-1.8241,-1.8234,-1.8233,-1.8258,-1.822,-1.8244,-1.8212,-1.8234,-1.8216,-1.826,-1.8264,-1.8257,-1.8251,-1.8259,-1.8259,-1.8263,-1.8254,-1.8239,-1.8238,-1.8237,-1.8236,0,-1.8265,-1.8243,-1.8288,-1.8276,-1.8275,-1.831,-1.83,-1.8325,-1.8312,-1.8344,-1.835,-1.833,-1.8354,-1.8332,-1.8355,-1.8343,-1.8402,-1.8388,-1.8401,-1.8396,-1.8443,-1.8438,-1.8602,-1.8621,-1.8471,-1.8472,-1.8474,0,-1.8336,-1.8368,-1.836,-1.8374,-1.8374,-1.8397,-1.8408,-1.8379,-1.8392,-1.8397,-1.8421,-1.8443,-1.8457,-1.8498,-1.8486,-1.8504,-1.8489,-1.8545,-1.8491,-1.8498,-1.8487,-1.8484,-1.8487,-1.8555,-1.8557,-1.8558,-1.8559,0,-1.8465,-1.8453,-1.847,-1.8484,-1.8499,-1.8508,-1.8515,-1.8529,-1.85,-1.8517,-1.8541,-1.8553,-1.8577,-1.8598,-1.8613,-1.8612,-1.8581,-1.8578,-1.8589,-1.8595,-1.8601,-1.8596,-1.8428,-1.8573,-1.8571,-1.857,-1.857,-1.8569,-1.8561,-1.8587,-1.8585,-1.8606,-1.8609,-1.8617,-1.8639,-1.863,-1.8649,-1.8665,-1.8648,-1.8678,-1.868,-1.8696,-1.8699,-1.8722,-1.8698,-1.8715,-1.8719,-1.8723,-1.8729,-1.86,-1.8725,-1.8725,-1.8724,-1.8724,-1.8724,0,-1.8686,-1.8683,-1.8703,-1.8714,-1.873,-1.8701,-1.8708,-1.8724,-1.875,-1.8755,-1.877,-1.8799,-1.882,-1.8811,-1.883,-1.885,-1.8837,-1.8856,-1.8852,-1.8852,-1.875,-1.8737,-1.8866,-1.8866,-1.8866,-1.8866,-1.8866,-1.8866,-1.8752,-1.8794,-1.8783,-1.8826,-1.8824,-1.8851,-1.8858,-1.8865,-1.8869,-1.8902,-1.8919,-1.8913,-1.8912,-1.8931,-1.895,-1.8947,-1.8955,-1.8979,-1.897,-1.8874,-1.886,-1.8846,-1.8834,-1.8981,-1.8981,-1.9071,-1.9071,-1.9072]},{"header":{"parameterUnit":"m.s-1","parameterCategory":1,"la1":30.2991,"la2":30.254,"lo1":-89.0895,"lo2":-89.0444,"dy":0.0017,"dx":0.0017,"nx":28,"ny":28,"refTime":"2023-09-13T09:00:00:Z","depth":0,"parameterNumber":3,"parameterNumberName":"V-component_of_WINDS"},"data":[0,0,0,0,0,0,0,0,0,0,0,0,0,0,0,0,0,0,0,0,0,0,0,0,0,0,0,0,0,0,0,0,0,0,0,0,0,0,0,0,0,0,0,0,0,0,0,0,0,0,0,0,0,0,0,0,0,0,2.7956,2.7957,0,2.8039,2.804,2.8041,2.8099,2.8099,2.81,2.81,2.818,2.8182,2.8183,0,0,0,0,0,0,0,0,0,0,0,0,0,2.7842,2.7844,2.7956,2.7957,2.7958,2.8039,2.804,2.8041,2.8099,2.8099,2.81,2.81,2.8179,2.8181,2.8183,0,0,0,0,0,0,0,0,0,0,0,0,0,2.7905,2.7844,2.7956,2.7997,2.8001,2.8039,2.804,2.8041,2.8099,2.8099,2.81,2.8101,2.8179,2.8181,2.8184,2.8185,0,0,2.8191,2.8193,0,0,0,0,0,0,0,0,2.7901,2.7909,2.799,2.7994,2.7999,2.8059,2.8029,2.809,2.8099,2.8061,2.81,2.8101,2.8139,2.8145,2.8159,2.8189,2.8193,2.8192,2.8193,2.8194,2.8195,0,0,0,0,0,0,0,2.7897,2.7905,2.7989,2.7991,2.7996,2.8009,2.8019,2.8041,2.8095,2.8065,2.8069,2.8079,2.8142,2.8156,2.8161,2.8194,2.8192,2.8194,2.8195,2.8196,2.8229,2.8229,0,0,0,0,0,0,2.7887,2.7902,2.7986,2.7991,2.7951,2.8011,2.8021,2.8039,2.8095,2.8104,2.8078,2.8081,2.8151,2.8158,2.8164,2.817,2.8194,2.8197,2.8198,2.823,2.8229,2.8228,0,0,0,0,0,0,2.7884,2.7894,2.7983,2.7948,2.796,2.8012,2.8031,2.804,2.8055,2.8105,2.8114,2.8083,2.8152,2.816,2.818,2.8173,2.8198,2.82,2.8231,2.823,2.8229,2.8181,0,0,0,0,0,0,2.788,2.7892,2.7895,2.7947,2.7962,2.7999,2.8031,2.8042,2.806,2.8065,2.8112,2.8121,2.8153,2.8176,2.8182,2.8177,2.8202,2.8232,2.823,2.8229,2.8183,2.8178,2.8174,0,0,0,0,0,2.7876,2.7877,2.7895,2.7904,2.7966,2.7998,2.8006,2.8045,2.8059,2.8061,2.8093,2.8119,2.8173,2.8177,2.8185,2.8181,2.8232,2.8231,2.8229,2.8185,2.8179,2.8174,0,0,0,0,0,0,2.782,2.7885,2.7905,2.7923,2.7955,2.8008,2.8012,2.8038,2.8065,2.8068,2.8113,2.8124,2.8138,2.8161,2.8165,2.8185,2.8206,2.8206,2.817,2.8164,2.816,2.8154,2.8204,0,0,0,0,0,2.7811,2.7833,2.7887,2.7898,2.7913,2.7959,2.7975,2.8002,2.8036,2.805,2.8083,2.8114,2.8138,2.8152,2.8177,2.8187,2.8198,2.8187,2.8183,2.8179,2.8178,2.8185,2.8181,2.8224,2.8224,2.8224,0,0,2.779,2.7828,2.7839,2.7888,2.7916,2.7936,2.797,2.7991,2.8006,2.8052,2.8074,2.8099,2.8136,2.8151,2.8159,2.817,2.8169,2.8177,2.8173,2.8175,2.8183,2.8179,2.8175,2.8223,2.8223,2.8223,0,0,2.7763,2.7794,2.7807,2.7834,2.7877,2.7908,2.791,2.796,2.7979,2.8001,2.8036,2.8054,2.8094,2.8119,2.8137,2.8119,2.8143,2.8125,2.8101,2.8107,2.8104,2.8101,2.8094,2.8091,2.8124,2.8124,2.8124,0,2.7731,2.7766,2.7809,2.7828,2.7848,2.7892,2.7904,2.7928,2.7975,2.7987,2.8,2.8051,2.8079,2.81,2.8096,2.8109,2.8113,2.812,2.8101,2.8099,2.8097,2.8091,2.8088,2.8122,2.8122,2.8122,2.8123,0,2.7725,2.7748,2.7752,2.7799,2.7819,2.7834,2.7878,2.7893,2.7918,2.7947,2.7969,2.8004,2.8037,2.8043,2.8068,2.8068,2.8074,2.8093,2.8115,2.8089,2.8085,2.8083,2.8118,2.8119,2.812,2.8121,0,0,2.7665,2.7736,2.7737,2.7758,2.7808,2.7826,2.7842,2.7876,2.7888,2.7918,2.7932,2.7965,2.7984,2.8004,2.8031,2.8036,2.8019,2.8055,2.8057,2.8047,2.8021,2.8006,2.8003,2.8036,2.8036,2.8035,2.8018,0,2.7646,2.768,2.7719,2.7739,2.776,2.7802,2.7816,2.7847,2.7874,2.7895,2.7924,2.7947,2.797,2.7982,2.7989,2.802,2.8014,2.8022,2.8048,2.8049,2.8038,2.8,2.7985,2.7966,2.8016,2.8016,2.8015,0,2.7628,2.7659,2.7681,2.7729,2.7739,2.7751,2.7785,2.7805,2.784,2.7859,2.7882,2.7911,2.7929,2.7948,2.7972,2.7976,2.7989,2.8006,2.8006,2.801,2.803,2.8003,2.7961,2.7958,2.8013,2.8013,2.8013,0,2.7582,2.7629,2.7648,2.7665,2.7722,2.7729,2.7752,2.7789,2.7806,2.7835,2.7847,2.7876,2.7892,2.7913,2.7949,2.796,2.7969,2.7991,2.7985,2.7984,2.7985,2.7984,2.7945,2.7993,2.7993,2.7993,2.7993,0,2.7557,2.7569,2.7629,2.764,2.7654,2.7698,2.771,2.7737,2.7769,2.7786,2.7823,2.7837,2.7884,2.7903,2.7931,2.7947,2.7953,2.7969,2.7976,2.7965,2.7963,2.7975,2.7977,2.7992,2.7992,2.7993,2.7993,0,2.7508,2.7549,2.7573,2.7625,2.7638,2.7646,2.7689,2.7701,2.7731,2.7751,2.7758,2.7804,2.7828,2.7866,2.7902,2.7921,2.7931,2.7943,2.792,2.7924,2.7915,2.7915,2.7881,2.7879,2.7928,2.7928,2.7927,0,2.7489,2.75,2.7553,2.7568,2.759,2.7613,2.7632,2.7674,2.7692,2.7733,2.7739,2.7767,2.7792,2.7829,2.7864,2.7891,2.7904,2.789,2.7908,2.7897,2.7904,2.7903,2.7904,2.7886,2.7885,2.7885,2.7884,0,2.7452,2.7471,2.7497,2.753,2.7551,2.7579,2.7608,2.7617,2.7666,2.7683,2.771,2.7729,2.7766,2.7793,2.7825,2.7847,2.7873,2.7878,2.7878,2.7867,2.7853,2.7861,2.7908,2.7879,2.7879,2.788,2.788,2.788,2.7418,2.7429,2.7468,2.7495,2.7522,2.7548,2.7562,2.7594,2.7617,2.7652,2.7675,2.77,2.7734,2.778,2.7801,2.782,2.7831,2.7831,2.7831,2.783,2.7827,2.785,2.7826,2.7826,2.7826,2.7826,2.7826,0,2.7382,2.7409,2.7434,2.7474,2.7495,2.752,2.7553,2.7569,2.7591,2.7621,2.7645,2.7675,2.7701,2.7738,2.7767,2.7775,2.7787,2.778,2.778,2.7785,2.7815,2.7812,2.777,2.777,2.777,2.777,2.777,2.777,2.7366,2.7386,2.741,2.7443,2.747,2.7496,2.7513,2.7536,2.7561,2.7593,2.7616,2.7641,2.7673,2.7704,2.7729,2.7739,2.7747,2.7737,2.775,2.7778,2.7783,2.7788,2.7786,2.7738,2.7738,2.7719,2.7719,2.7719]}]]